Location: Unspecified
(20.0000°S, 0.0000°E)
Time: 04:33:02
(UTC+00:00)

JUGNU - Visible Passes

Search period start: 18 August 2019 00:00
Search period end: 28 August 2019 00:00
Orbit: 837 x 864 km, 20.0° (Epoch: 16 August)

Date Brightness Start Highest point End Pass type
(mag) Time Alt. Az. Time Alt. Az. Time Alt. Az.
18 Aug ? 19:19:57 10° W 19:25:49 77° N 19:27:14 52° ENE visible
19 Aug ? 19:04:49 10° W 19:10:41 73° N 19:13:12 35° ENE visible
19 Aug ? 20:54:09 10° W 20:55:04 14° W 20:55:04 14° W visible
20 Aug ? 18:49:41 10° W 18:55:32 69° N 18:59:13 23° ENE visible
20 Aug ? 20:39:05 10° W 20:41:06 20° WNW 20:41:06 20° WNW visible
21 Aug ? 18:34:33 10° W 18:40:23 65° NNW 18:45:17 15° ENE visible
21 Aug ? 20:24:04 10° W 20:27:09 25° NW 20:27:09 25° NW visible
22 Aug ? 18:19:26 10° W 18:25:14 61° NNW 18:31:01 10° ENE visible
22 Aug ? 20:09:03 10° WNW 20:13:15 28° NNW 20:13:15 28° NNW visible
23 Aug ? 18:04:18 10° W 18:10:05 57° NNW 18:15:49 10° ENE visible
23 Aug ? 19:54:05 10° WNW 19:58:51 26° NNW 19:59:23 25° NNW visible
24 Aug ? 19:39:08 10° WNW 19:43:41 23° NNW 19:45:34 20° N visible
25 Aug ? 19:24:13 10° WNW 19:28:31 21° NNW 19:31:46 14° NNE visible
26 Aug ? 19:09:22 10° WNW 19:13:20 19° NNW 19:17:18 10° NNE visible
27 Aug ? 18:54:33 10° WNW 18:58:10 17° NNW 19:01:46 10° NNE visible
